FW2134 Weather Reports


time (UTC)temp
F
wind
direction
speed
knots
gust
knots
rain 1hr
in
rain 24hr
in
rain mn
in
humidity
%
barometer
mb
20260905123012 71 203 1.7 0.0 0.00 0.00 0.00 71 1010.2
20260905121515 70 196 1.7 0.0 0.00 0.00 0.00 71 1009.9
20260905120025 70 192 0.9 0.0 0.00 0.00 0.00 72 1009.8
20260905114512 69 230 0.0 0.0 0.00 0.00 0.00 72 1009.7
20260905113014 69 244 0.0 0.0 0.00 0.00 0.00 72 1009.4
20260905111515 69 244 0.0 0.0 0.00 0.00 0.00 71 1009.2
20260905110017 69 263 0.0 0.0 0.00 0.00 0.00 70 1009.0
20260905104511 70 292 0.0 0.0 0.00 0.00 0.00 69 1008.8
20260905103017 70 295 0.0 0.0 0.00 0.00 0.00 68 1008.9
20260905101509 70 295 0.0 0.0 0.00 0.00 0.00 69 1008.8
20260905100006 71 295 0.0 0.0 0.00 0.00 0.00 70 1008.8
20260905094509 71 295 0.0 0.0 0.00 0.00 0.00 65 1008.7
20260905093005 71 295 0.0 0.0 0.00 0.00 0.00 64 1008.7
20260905091505 71 264 0.0 0.0 0.00 0.00 0.00 64 1008.5
20260905090008 72 312 0.9 0.0 0.00 0.00 0.00 63 1008.5
20260905084503 72 285 0.0 0.0 0.00 0.00 0.00 62 1008.6
20260905083002 72 237 0.0 0.0 0.00 0.00 0.00 63 1008.6
20260905081504 72 292 0.0 0.0 0.00 0.00 0.00 61 1008.6
20260905080003 72 318 0.0 0.0 0.00 0.00 0.00 62 1008.7
20260905074502 73 325 0.0 0.0 0.00 0.00 0.00 64 1008.7
20260905073002 73 323 0.9 0.0 0.00 0.00 0.00 60 1008.7
20260905071502 73 301 0.0 0.0 0.00 0.00 0.00 60 1008.8
20260905070001 73 206 0.0 0.0 0.00 0.00 0.00 61 1008.8
20260905064624 72 243 0.0 0.0 0.00 0.00 0.00 62 1008.7
20260905063102 72 241 0.0 0.0 0.00 0.00 0.00 67 1008.8
20260905061559 72 241 0.0 0.0 0.00 0.00 0.00 74 1009.0
20260905060056 73 240 0.0 0.0 0.00 0.00 0.00 72 1009.1
20260905054557 73 241 0.0 0.0 0.00 0.00 0.00 72 1009.3
20260905053054 73 241 0.0 0.0 0.00 0.00 0.00 66 1009.6
20260905051553 74 241 0.0 0.0 0.00 0.00 0.00 69 1009.7
20260905050056 74 285 0.0 0.0 0.00 0.00 0.00 64 1009.6
20260905044550 74 285 0.0 0.0 0.00 0.00 0.00 64 1009.6
20260905043049 75 285 0.0 0.0 0.00 0.00 0.00 64 1009.7
20260905041554 75 272 0.0 0.0 0.00 0.00 0.00 64 1009.7
20260905040043 75 206 0.9 0.0 0.00 0.00 0.02 62 1009.7
20260905034543 75 329 0.9 0.0 0.00 0.00 0.02 63 1009.6
20260905033043 75 329 0.9 0.0 0.00 0.00 0.02 63 1009.6
20260905031544 75 329 0.9 0.0 0.00 0.00 0.02 63 1009.5
20260905030044 75 277 0.0 0.0 0.00 0.00 0.02 65 1009.5
20260905024549 75 230 0.0 0.0 0.00 0.00 0.02 67 1009.6
20260905023043 75 202 0.0 0.0 0.00 0.00 0.02 67 1009.7
20260905021544 74 182 0.0 0.0 0.00 0.00 0.02 69 1009.7
20260905020042 73 248 0.0 0.0 0.00 0.00 0.02 74 1009.8
20260905014552 73 250 0.0 0.0 0.00 0.00 0.02 72 1009.7
20260905013041 74 250 0.0 0.0 0.00 0.00 0.02 73 1009.8
20260905011541 74 226 0.0 0.0 0.00 0.00 0.02 70 1009.6
20260905010045 75 226 0.0 0.0 0.00 0.00 0.02 71 1009.5
20260905004541 75 226 0.0 0.0 0.00 0.00 0.02 70 1009.4
20260905003041 76 226 0.0 0.0 0.00 0.00 0.02 69 1009.3
20260905001542 77 226 0.0 0.0 0.00 0.00 0.02 67 1009.4
20260905000041 78 226 0.0 0.0 0.00 0.00 0.02 64 1009.2
20260904234546 78 176 0.9 0.0 0.00 0.00 0.02 61 1009.2
20260904233040 79 227 0.0 0.0 0.00 0.00 0.02 61 1009.2
20260904231540 80 216 0.0 0.0 0.00 0.00 0.02 58 1009.2
20260904230040 81 196 1.7 0.0 0.00 0.00 0.02 54 1009.2
20260904224541 82 196 2.6 0.0 0.00 0.00 0.02 51 1009.3
20260904223048 82 150 4.3 0.0 0.00 0.00 0.02 49 1009.3
20260904221548 83 196 4.3 0.0 0.00 0.00 0.02 47 1009.2
20260904220056 84 248 3.5 0.0 0.00 0.00 0.02 48 1009.2
20260904214542 84 205 3.5 0.0 0.00 0.00 0.02 46 1009.0
20260904213040 84 216 5.2 0.0 0.00 0.00 0.02 47 1008.9
20260904211545 84 188 4.3 0.0 0.00 0.00 0.02 48 1008.8
20260904210044 84 279 2.6 0.0 0.00 0.00 0.02 49 1009.1
20260904204536 84 202 4.3 0.0 0.00 0.00 0.02 49 1009.2
20260904203036 84 210 4.3 0.0 0.00 0.00 0.02 49 1009.2
20260904201538 85 234 3.5 0.0 0.00 0.00 0.02 50 1009.3
20260904200040 85 200 5.2 0.0 0.00 0.00 0.02 51 1009.6
20260904194620 84 178 4.3 0.0 0.00 0.00 0.02 52 1009.7
20260904193040 84 198 4.3 0.0 0.00 0.00 0.02 52 1009.8
20260904191537 85 185 4.3 0.0 0.00 0.00 0.02 52 1009.9
20260904190045 85 215 5.2 0.0 0.00 0.00 0.02 52 1009.8
20260904184537 85 198 2.6 0.0 0.00 0.00 0.02 50 1010.0
20260904183036 86 143 2.6 0.0 0.00 0.00 0.02 50 1010.1
20260904181536 85 209 2.6 0.0 0.00 0.00 0.02 51 1010.0
20260904180036 85 205 5.2 0.0 0.00 0.00 0.02 52 1010.0
20260904174530 85 199 4.3 0.0 0.00 0.00 0.02 54 1010.0
20260904173035 84 189 3.5 0.0 0.00 0.00 0.02 56 1010.0
20260904171539 84 333 1.7 0.0 0.00 0.00 0.02 56 1010.1
20260904170030 84 315 4.3 0.0 0.00 0.00 0.02 54 1010.2
20260904164529 83 186 3.5 0.0 0.00 0.00 0.02 56 1010.3
20260904163024 82 199 1.7 0.0 0.00 0.00 0.02 59 1010.3
20260904161526 82 254 0.9 0.0 0.00 0.00 0.02 58 1010.3
20260904160019 82 325 1.7 0.0 0.00 0.00 0.02 57 1010.3
20260904154517 81 318 2.6 0.0 0.00 0.00 0.02 57 1010.5
20260904153023 81 181 1.7 0.0 0.00 0.00 0.02 60 1010.6
20260904151532 81 193 1.7 0.0 0.00 0.00 0.02 60 1010.8
20260904150016 81 289 0.9 0.0 0.00 0.00 0.02 62 1010.6
20260904144515 80 322 0.9 0.0 0.00 0.00 0.02 62 1010.7
20260904143013 80 318 1.7 0.0 0.00 0.00 0.02 65 1010.7
20260904141513 79 171 1.7 0.0 0.00 0.00 0.02 66 1010.4
20260904140011 79 336 1.7 0.0 0.00 0.00 0.02 70 1010.4
20260904134512 78 192 1.7 0.0 0.00 0.00 0.02 73 1010.3
20260904133012 78 240 4.3 0.0 0.00 0.00 0.02 73 1010.3
20260904131512 79 176 4.3 0.0 0.00 0.00 0.02 72 1010.4
20260904130007 78 202 3.5 0.0 0.00 0.00 0.02 75 1010.3
20260904124506 77 189 1.7 0.0 0.00 0.00 0.02 81 1010.3